Time,TemperatureF,DewpointF,PressureIn,WindDirection,WindDirectionDegrees,WindSpeedMPH,WindSpeedGustMPH,Humidity,HourlyPrecipIn,Conditions,Clouds,dailyrainin,SolarRadiationWatts/m^2,SoftwareType,DateUTC
2013-10-09 00:22:00,50.0,23.0,-100.00,WNW,299,1.0,4.0,34,0.00,,,0.00,0.000000,,2013-10-09 06:22:00,
2013-10-09 00:33:00,50.0,23.0,-100.00,WNW,299,1.0,4.0,34,0.00,,,0.00,0.000000,,2013-10-09 06:33:00,
2013-10-09 00:42:00,50.0,23.0,-100.00,WNW,299,1.0,4.0,34,0.00,,,0.00,0.000000,,2013-10-09 06:42:00,
2013-10-09 00:52:00,50.0,23.0,-100.00,WNW,299,1.0,4.0,34,0.00,,,0.00,0.000000,,2013-10-09 06:52:00,
2013-10-09 01:21:00,47.0,21.0,-100.00,SW,231,3.0,4.0,36,0.00,,,0.00,0.000000,,2013-10-09 07:21:00,
2013-10-09 01:31:00,47.0,21.0,-100.00,SW,231,3.0,4.0,36,0.00,,,0.00,0.000000,,2013-10-09 07:31:00,
2013-10-09 01:42:00,47.0,21.0,-100.00,SW,231,3.0,4.0,36,0.00,,,0.00,0.000000,,2013-10-09 07:42:00,
2013-10-09 01:52:00,47.0,21.0,-100.00,SW,231,3.0,4.0,36,0.00,,,0.00,0.000000,,2013-10-09 07:52:00,
2013-10-09 02:23:00,47.0,21.0,-100.00,WNW,287,1.0,5.0,36,0.00,,,0.00,0.000000,,2013-10-09 08:23:00,
2013-10-09 02:32:00,47.0,21.0,-100.00,WNW,287,1.0,5.0,36,0.00,,,0.00,0.000000,,2013-10-09 08:32:00,
2013-10-09 02:42:00,47.0,21.0,-100.00,WNW,287,1.0,5.0,36,0.00,,,0.00,0.000000,,2013-10-09 08:42:00,
2013-10-09 02:53:00,47.0,21.0,-100.00,WNW,287,1.0,5.0,36,0.00,,,0.00,0.000000,,2013-10-09 08:53:00,
2013-10-09 03:22:00,46.0,22.0,-100.00,WSW,254,1.0,5.0,38,0.00,,,0.00,0.000000,,2013-10-09 09:22:00,
2013-10-09 03:33:00,46.0,22.0,-100.00,WSW,254,1.0,5.0,38,0.00,,,0.00,0.000000,,2013-10-09 09:33:00,
2013-10-09 03:43:00,46.0,22.0,-100.00,WSW,254,1.0,5.0,38,0.00,,,0.00,0.000000,,2013-10-09 09:43:00,
2013-10-09 03:53:00,46.0,22.0,-100.00,WSW,254,1.0,5.0,38,0.00,,,0.00,0.000000,,2013-10-09 09:53:00,
2013-10-09 04:23:00,45.0,21.0,-100.00,East,99,2.0,4.0,38,0.00,,,0.00,0.000000,,2013-10-09 10:23:00,
2013-10-09 04:32:00,45.0,21.0,-100.00,East,99,2.0,4.0,38,0.00,,,0.00,0.000000,,2013-10-09 10:32:00,
2013-10-09 04:43:00,45.0,21.0,-100.00,East,99,2.0,4.0,38,0.00,,,0.00,0.000000,,2013-10-09 10:43:00,
2013-10-09 04:52:00,45.0,21.0,-100.00,East,99,2.0,4.0,38,0.00,,,0.00,0.000000,,2013-10-09 10:52:00,
2013-10-09 05:22:00,44.0,22.0,-100.00,East,86,4.0,6.0,42,0.00,,,0.00,0.000000,,2013-10-09 11:22:00,
2013-10-09 05:33:00,44.0,22.0,-100.00,East,86,4.0,6.0,42,0.00,,,0.00,0.000000,,2013-10-09 11:33:00,
2013-10-09 05:42:00,44.0,22.0,-100.00,East,86,4.0,6.0,42,0.00,,,0.00,0.000000,,2013-10-09 11:42:00,
2013-10-09 05:52:00,44.0,22.0,-100.00,East,86,4.0,6.0,42,0.00,,,0.00,0.000000,,2013-10-09 11:52:00,
2013-10-09 06:21:00,43.0,23.0,-100.00,WNW,292,2.0,5.0,45,0.00,,,0.00,0.000000,,2013-10-09 12:21:00,
2013-10-09 06:32:00,43.0,23.0,-100.00,WNW,292,2.0,5.0,45,0.00,,,0.00,0.000000,,2013-10-09 12:32:00,
2013-10-09 06:42:00,43.0,23.0,-100.00,WNW,292,2.0,5.0,45,0.00,,,0.00,0.000000,,2013-10-09 12:42:00,
2013-10-09 06:52:00,43.0,23.0,-100.00,WNW,292,2.0,5.0,45,0.00,,,0.00,0.000000,,2013-10-09 12:52:00,
2013-10-09 07:22:00,42.0,24.0,-100.00,ENE,57,3.0,4.0,48,0.00,,,0.00,0.000000,,2013-10-09 13:22:00,
2013-10-09 07:32:00,42.0,24.0,-100.00,ENE,57,3.0,4.0,48,0.00,,,0.00,0.000000,,2013-10-09 13:32:00,
2013-10-09 07:42:00,42.0,24.0,-100.00,ENE,57,3.0,4.0,48,0.00,,,0.00,0.000000,,2013-10-09 13:42:00,
2013-10-09 07:52:00,42.0,24.0,-100.00,ENE,57,3.0,4.0,48,0.00,,,0.00,0.000000,,2013-10-09 13:52:00,
2013-10-09 08:22:00,46.0,25.0,-100.00,NNE,21,2.0,5.0,44,0.00,,,0.00,41.000000,,2013-10-09 14:22:00,
2013-10-09 08:32:00,46.0,25.0,-100.00,NNE,21,2.0,5.0,44,0.00,,,0.00,41.000000,,2013-10-09 14:32:00,
2013-10-09 08:41:00,46.0,25.0,-100.00,NNE,21,2.0,5.0,44,0.00,,,0.00,41.000000,,2013-10-09 14:41:00,
2013-10-09 09:22:00,49.0,25.0,-100.00,SSE,148,2.0,5.0,39,0.00,,,0.00,156.000000,,2013-10-09 15:22:00,
2013-10-09 09:33:00,49.0,25.0,-100.00,SSE,148,2.0,5.0,39,0.00,,,0.00,156.000000,,2013-10-09 15:33:00,
2013-10-09 09:43:00,49.0,25.0,-100.00,SSE,148,2.0,5.0,39,0.00,,,0.00,156.000000,,2013-10-09 15:43:00,
2013-10-09 09:53:00,49.0,25.0,-100.00,SSE,148,2.0,5.0,39,0.00,,,0.00,156.000000,,2013-10-09 15:53:00,
2013-10-09 10:24:00,50.0,25.0,-100.00,SSE,167,4.0,9.0,37,0.00,,,0.00,319.000000,,2013-10-09 16:24:00,
2013-10-09 10:32:00,50.0,25.0,-100.00,SSE,167,4.0,9.0,37,0.00,,,0.00,319.000000,,2013-10-09 16:32:00,
2013-10-09 10:42:00,50.0,25.0,-100.00,SSE,167,4.0,9.0,37,0.00,,,0.00,319.000000,,2013-10-09 16:42:00,
2013-10-09 10:52:00,50.0,25.0,-100.00,SSE,167,4.0,9.0,37,0.00,,,0.00,319.000000,,2013-10-09 16:52:00,
2013-10-09 11:22:00,53.0,25.0,-100.00,South,184,6.0,12.0,34,0.00,,,0.00,388.000000,,2013-10-09 17:22:00,
2013-10-09 11:33:00,53.0,25.0,-100.00,South,184,6.0,12.0,34,0.00,,,0.00,388.000000,,2013-10-09 17:33:00,
2013-10-09 11:42:00,53.0,25.0,-100.00,South,184,6.0,12.0,34,0.00,,,0.00,388.000000,,2013-10-09 17:42:00,
2013-10-09 11:52:00,53.0,25.0,-100.00,South,184,6.0,12.0,34,0.00,,,0.00,388.000000,,2013-10-09 17:52:00,
2013-10-09 12:22:00,55.0,26.0,-100.00,SE,131,7.0,13.0,33,0.00,,,0.00,518.000000,,2013-10-09 18:22:00,
2013-10-09 12:32:00,55.0,26.0,-100.00,SE,131,7.0,13.0,33,0.00,,,0.00,518.000000,,2013-10-09 18:32:00,
2013-10-09 12:42:00,55.0,26.0,-100.00,SE,131,7.0,13.0,33,0.00,,,0.00,518.000000,,2013-10-09 18:42:00,
2013-10-09 12:52:00,55.0,26.0,-100.00,SE,131,7.0,13.0,33,0.00,,,0.00,518.000000,,2013-10-09 18:52:00,
2013-10-09 13:22:00,57.0,25.0,-100.00,SE,141,8.0,18.0,29,0.00,,,0.00,648.000000,,2013-10-09 19:22:00,
2013-10-09 13:32:00,57.0,25.0,-100.00,SE,141,8.0,18.0,29,0.00,,,0.00,648.000000,,2013-10-09 19:32:00,
2013-10-09 13:42:00,57.0,25.0,-100.00,SE,141,8.0,18.0,29,0.00,,,0.00,648.000000,,2013-10-09 19:42:00,
2013-10-09 13:52:00,57.0,25.0,-100.00,SE,141,8.0,18.0,29,0.00,,,0.00,648.000000,,2013-10-09 19:52:00,
2013-10-09 14:22:00,57.0,26.0,-100.00,SSE,160,5.0,15.0,30,0.00,,,0.00,420.000000,,2013-10-09 20:22:00,
2013-10-09 14:32:00,57.0,26.0,-100.00,SSE,160,5.0,15.0,30,0.00,,,0.00,420.000000,,2013-10-09 20:32:00,
2013-10-09 14:43:00,57.0,26.0,-100.00,SSE,160,5.0,15.0,30,0.00,,,0.00,420.000000,,2013-10-09 20:43:00,
2013-10-09 14:52:00,57.0,26.0,-100.00,SSE,160,5.0,15.0,30,0.00,,,0.00,420.000000,,2013-10-09 20:52:00,
2013-10-09 15:22:00,57.0,24.0,-100.00,SE,126,8.0,16.0,28,0.00,,,0.00,410.000000,,2013-10-09 21:22:00,
2013-10-09 15:34:00,57.0,24.0,-100.00,SE,126,8.0,16.0,28,0.00,,,0.00,410.000000,,2013-10-09 21:34:00,
2013-10-09 15:43:00,57.0,24.0,-100.00,SE,126,8.0,16.0,28,0.00,,,0.00,410.000000,,2013-10-09 21:43:00,
2013-10-09 15:53:00,57.0,24.0,-100.00,SE,126,8.0,16.0,28,0.00,,,0.00,410.000000,,2013-10-09 21:53:00,
2013-10-09 16:24:00,56.0,22.0,-100.00,SSE,156,9.0,18.0,26,0.00,,,0.00,293.000000,,2013-10-09 22:24:00,
2013-10-09 16:34:00,56.0,22.0,-100.00,SSE,156,9.0,18.0,26,0.00,,,0.00,293.000000,,2013-10-09 22:34:00,
2013-10-09 16:43:00,56.0,22.0,-100.00,SSE,156,9.0,18.0,26,0.00,,,0.00,293.000000,,2013-10-09 22:43:00,
2013-10-09 16:53:00,56.0,22.0,-100.00,SSE,156,9.0,18.0,26,0.00,,,0.00,293.000000,,2013-10-09 22:53:00,
2013-10-09 17:22:00,56.0,16.0,-100.00,South,176,9.0,20.0,20,0.00,,,0.00,193.000000,,2013-10-09 23:22:00,
2013-10-09 17:34:00,56.0,16.0,-100.00,South,176,9.0,20.0,20,0.00,,,0.00,193.000000,,2013-10-09 23:34:00,
2013-10-09 17:42:00,56.0,16.0,-100.00,South,176,9.0,20.0,20,0.00,,,0.00,193.000000,,2013-10-09 23:42:00,
2013-10-09 17:53:00,56.0,16.0,-100.00,South,176,9.0,20.0,20,0.00,,,0.00,193.000000,,2013-10-09 23:53:00,
2013-10-09 18:22:00,55.0,18.0,-100.00,South,185,5.0,16.0,23,0.00,,,0.00,105.000000,,2013-10-10 00:22:00,
2013-10-09 18:32:00,55.0,18.0,-100.00,South,185,5.0,16.0,23,0.00,,,0.00,105.000000,,2013-10-10 00:32:00,
2013-10-09 18:42:00,55.0,18.0,-100.00,South,185,5.0,16.0,23,0.00,,,0.00,105.000000,,2013-10-10 00:42:00,
2013-10-09 18:52:00,55.0,18.0,-100.00,South,185,5.0,16.0,23,0.00,,,0.00,105.000000,,2013-10-10 00:52:00,
2013-10-09 19:21:00,52.0,22.0,-100.00,West,271,10.0,22.0,30,0.00,,,0.00,8.000000,,2013-10-10 01:21:00,
2013-10-09 19:32:00,52.0,22.0,-100.00,West,271,10.0,22.0,30,0.00,,,0.00,8.000000,,2013-10-10 01:32:00,
2013-10-09 19:42:00,52.0,22.0,-100.00,West,271,10.0,22.0,30,0.00,,,0.00,8.000000,,2013-10-10 01:42:00,
2013-10-09 19:52:00,52.0,22.0,-100.00,West,271,10.0,22.0,30,0.00,,,0.00,8.000000,,2013-10-10 01:52:00,
2013-10-09 20:22:00,52.0,22.0,-100.00,North,352,4.0,14.0,31,0.00,,,0.00,0.000000,,2013-10-10 02:22:00,
2013-10-09 20:32:00,52.0,22.0,-100.00,North,352,4.0,14.0,31,0.00,,,0.00,0.000000,,2013-10-10 02:32:00,
2013-10-09 20:42:00,52.0,22.0,-100.00,North,352,4.0,14.0,31,0.00,,,0.00,0.000000,,2013-10-10 02:42:00,
2013-10-09 20:52:00,52.0,22.0,-100.00,North,352,4.0,14.0,31,0.00,,,0.00,0.000000,,2013-10-10 02:52:00,
2013-10-09 21:22:00,48.0,28.0,-100.00,ENE,74,5.0,15.0,46,0.00,,,0.00,0.000000,,2013-10-10 03:22:00,
2013-10-09 21:34:00,48.0,28.0,-100.00,ENE,74,5.0,15.0,46,0.00,,,0.00,0.000000,,2013-10-10 03:34:00,
2013-10-09 21:44:00,48.0,28.0,-100.00,ENE,74,5.0,15.0,46,0.00,,,0.00,0.000000,,2013-10-10 03:44:00,
2013-10-09 21:54:00,48.0,28.0,-100.00,ENE,74,5.0,15.0,46,0.00,,,0.00,0.000000,,2013-10-10 03:54:00,
2013-10-09 22:24:00,44.0,33.0,-100.00,NE,39,8.0,15.0,66,0.01,,,0.01,0.000000,,2013-10-10 04:24:00,
2013-10-09 22:33:00,44.0,33.0,-100.00,NE,39,8.0,15.0,66,0.01,,,0.01,0.000000,,2013-10-10 04:33:00,
2013-10-09 22:46:00,44.0,33.0,-100.00,NE,39,8.0,15.0,66,0.01,,,0.01,0.000000,,2013-10-10 04:46:00,
2013-10-09 22:53:00,44.0,33.0,-100.00,NE,39,8.0,15.0,66,0.01,,,0.01,0.000000,,2013-10-10 04:53:00,
2013-10-09 23:22:00,42.0,35.0,-100.00,NNW,347,8.0,14.0,77,0.01,,,0.02,0.000000,,2013-10-10 05:22:00,
2013-10-09 23:34:00,42.0,35.0,-100.00,NNW,347,8.0,14.0,77,0.01,,,0.02,0.000000,,2013-10-10 05:34:00,
2013-10-09 23:43:00,42.0,35.0,-100.00,NNW,347,8.0,14.0,77,0.01,,,0.02,0.000000,,2013-10-10 05:43:00,
2013-10-09 23:52:00,42.0,35.0,-100.00,NNW,347,8.0,14.0,77,0.01,,,0.02,0.000000,,2013-10-10 05:52:00,